Find Starlink 31996

NORAD ID: 60100 Int'l Des: 2024-117 Owner: SPXS Country: US Constellation: starlink operational
LEOCIRCULAR

Live-Position

3D-Globus wird geladen...

Über Starlink 31996

Beschreibung wird geladen...

Nächste Überflüge

Passes for default location (London). Set your location on the main map for personalized predictions.

Höhenverlauf

Loading altitude history...

Zweizeiliger Elementsatz

1 60100U 24117K 26127.17206495 -.00000687 00000-0 -11088-4 0 9999
2 60100 53.1593 125.2477 0001191 83.7430 276.3706 15.30186667105842
Epoch: 7. Mai 2026 • Age: 4 hours

Aktueller Status

Höhe 489.9 km
Geschwindigkeit 7.62 km/s
Subsatellitenpunkt -42.16°S, 87.98°E
Startdatum 23. Juni 2024
Alter 1.8 years
Typ internet

Technische Details

Klassifizierung Payload
Masse 730.00 kg
Trockenmasse 700.00 kg
Gesamtmasse 730.00 kg
Länge 0.30 m
Durchmesser 4.10 m
Spannweite 29.00 m
Form Box + pan
Hersteller SPXS
Bus-Typ Starlink V2M
Phasenstatus In Orbit
Besitzer/Staat SPXS/US

Most Searched